SILO ALERT LOG


Silo ID Alert Type Alert Message Silo Type Points Depth (mm) Strength Temperature (°C) Humidity (%) Height (mm) Volume (㎥) Weight (t) Flag Time
WJWJR01 Humidity 습도센서 측정값이 80% 초과 76 4180 2038 22.7 81.6 3460 391.317 247.39 0 2026-06-16 08:26:24.000
WJWJR01 Humidity 습도센서 측정값이 80% 초과 69 4280 2230 21.4 83.4 3359 380.007 240.24 0 2026-06-16 07:26:23.000
WJWJR01 Humidity 습도센서 측정값이 80% 초과 68 4240 2228 21.1 83.4 3399 384.531 243.1 0 2026-06-16 06:26:22.000
WJWJR01 Humidity 습도센서 측정값이 80% 초과 69 4260 2222 21.3 83 3380 382.269 241.67 0 2026-06-16 05:26:21.000
WJWJR01 Humidity 습도센서 측정값이 80% 초과 68 4270 2217 21.6 82.8 3370 381.138 240.955 0 2026-06-16 04:26:20.000
WJWJR01 Humidity 습도센서 측정값이 80% 초과 69 4240 2196 22 82.3 3399 384.531 243.1 0 2026-06-16 03:26:23.000
WJWJR01 Humidity 습도센서 측정값이 80% 초과 69 4260 2188 22.3 81.4 3380 382.269 241.67 0 2026-06-16 02:26:21.000
WJWJR01 Humidity 습도센서 측정값이 80% 초과 68 4250 2163 22.8 80.6 3389 383.4 242.385 0 2026-06-16 01:26:22.000
WJWJR01 Humidity 습도센서 측정값이 80% 초과 60 5110 2213 20.7 81.4 2529 286.136 180.895 0 2026-06-15 08:25:58.000
WJWJR01 Humidity 습도센서 측정값이 80% 초과 64 5200 2120 20.4 82.4 2439 275.957 174.46 0 2026-06-15 07:26:13.000
WJWJR01 Humidity 습도센서 측정값이 80% 초과 64 5200 2098 20.4 82.5 2439 275.957 174.46 0 2026-06-15 06:26:07.000
WJWJR01 Humidity 습도센서 측정값이 80% 초과 65 5190 2094 20.6 82.5 2449 277.088 175.175 0 2026-06-15 05:26:12.000
WJWJR01 Humidity 습도센서 측정값이 80% 초과 56 5190 2102 20.7 82.4 2449 277.088 175.175 0 2026-06-15 04:26:15.000
WJWJR01 Humidity 습도센서 측정값이 80% 초과 64 5180 2079 21 81.9 2460 278.219 175.89 0 2026-06-15 03:26:13.000
WJWJR01 Humidity 습도센서 측정값이 80% 초과 64 5170 2101 21.4 81.5 2469 279.35 176.605 0 2026-06-15 02:26:08.000
WJWJR01 Humidity 습도센서 측정값이 80% 초과 64 5180 2103 21.8 81 2460 278.219 175.89 0 2026-06-15 01:26:07.000
WJWJR01 Humidity 습도센서 측정값이 80% 초과 64 5200 2090 22.3 80.2 2439 275.957 174.46 0 2026-06-15 00:26:10.000
WJWJR01 Humidity 습도센서 측정값이 80% 초과 64 5200 2085 21.2 82.2 2439 275.957 174.46 0 2026-06-14 08:26:12.000
WJWJR01 Humidity 습도센서 측정값이 80% 초과 64 5190 2108 20.3 83.2 2449 277.088 175.175 0 2026-06-14 07:26:12.000
WJWJR01 Humidity 습도센서 측정값이 80% 초과 63 5180 2097 20 83.1 2460 278.219 175.89 0 2026-06-14 06:26:11.000

[첫 페이지] [44] [45] [46] [47] 48 [49] [50] [51] [52] [마지막 페이지]